Regional Weather Roundup
Issued by NWS

Home | Current Version | Previous Version | Text Only | Print | Product List | Glossary Off
Versions: 1 2 3 4 5 6 7 8 9 10 11 12 13 14 15 16 17 18 19 20 21 22 23 24 25 26 27 28 29 30 31 32 33 34 35 36 37 38 39 40 41 42 43 44 45 46 47 48 49 50

000
ASUS43 KIND 220909
RWRIN

WEATHER ROUNDUP FOR INDIANA
NATIONAL WEATHER SERVICE INDIANAPOLIS IN
400 AM EST WED FEB 22 2017

NOTE: "FAIR" INDICATES FEW OR NO CLOUDS BELOW 12,000 FEET WITH NO
SIGNIFICANT WEATHER AND/OR OBSTRUCTIONS TO VISIBILITY.

* - STATION DOES NOT REPORT WEATHER SUCH AS PRECIPITATION OR FOG.

+ - STATION NOT QUALITY CONTROLLED BY THE NATIONAL WEATHER SERVICE.
    USE DATA WITH CAUTION...ESPECIALLY DEWPOINT AND RELATIVE
    HUMIDITY OBSERVATIONS.

INZ001>003-010>013-019-020-221000-
NORTHWEST INDIANA

CITY           SKY/WX    TMP DP  RH WIND       PRES   REMARKS
GARY /AIRPORT/ CLOUDY    54  54  99 CALM      29.85F FOG
KNOX *+        CLOUDY    48  43  81 CALM      29.87S
LA PORTE +     CLOUDY    50  49  97 S3        29.87S FOG
MICHIGAN CITY+ CLOUDY    52  52 100 S5        29.86S
MONTICELLO +   CLOUDY    51  49  93 CALM      29.88R
RENSSELAER +   CLOUDY    48  46  93 S5        29.87S FOG
VALPARAISO     CLOUDY    52  50  93 S6        29.86F FOG

$$

LMZ046-743>745-221000-
SOUTHERN LAKE MICHIGAN

STATION/POSITION TIME  TEMP    WIND        PRES    WAVE
                       AIR SEA DIR/SP/G            HT
                 (UTC) (F)     (DEG/KT/KT) (MB)    (FT)
BURNS HARBOR     0904   53     180/  9/ 12 1011.2
MICHIGAN CITY    0840   53     160/  8/ 12   N/A

$$

INZ004-005-014>016-021>024-221000-
NORTH CENTRAL INDIANA

CITY           SKY/WX    TMP DP  RH WIND       PRES   REMARKS
GOSHEN         CLOUDY    51  46  83 S5        29.87S
LOGANSPORT +   MOCLDY    48  46  93 S3        29.88S FOG
PERU/GRISSOM   PTCLDY    50  50 100 S5        29.86S FOG
ROCHESTER +    CLOUDY    54  52  94 SW5       29.88S
SOUTH BEND     CLOUDY    47  47 100 SW5       29.87S FOG
WARSAW +       CLOUDY    52  48  87 CALM      29.87S

$$

INZ006>009-017-018-025>027-221000-
NORTHEAST INDIANA

CITY           SKY/WX    TMP DP  RH WIND       PRES   REMARKS
ANGOLA *+      CLOUDY    46  46 100 CALM      29.87S
AUBURN +       CLOUDY    52  48  87 S5        29.88F
FORT WAYNE     CLOUDY    50  48  93 SW7       29.89S FOG
HUNTINGTON +   PTCLDY    52  50  95 CALM      29.88S FOG
KENDALLVILLE + CLOUDY    52  50  93 SW7       29.88S

$$

INZ028-029-035-036-043>045-051>053-221000-
WEST CENTRAL INDIANA

CITY           SKY/WX    TMP DP  RH WIND       PRES   REMARKS
GREENCASTLE +  CLOUDY    52  52 100 S5        29.89S FOG
LAFAYETTE      PTCLDY    51  50  96 SW3       29.88R FOG
TERRE HAUTE    PTCLDY    53  51  93 S6        29.88R FOG

$$

INZ030>032-037>040-046>048-054>057-064-065-221000-
CENTRAL INDIANA

CITY           SKY/WX    TMP DP  RH WIND       PRES   REMARKS
CP ATTERBURY + CLOUDY    55  54  94 S6        29.90S
FRANKFORT +    FOG       50  49  97 CALM      29.90R VSB 1/4
GREENWOOD *+   CLOUDY    56  56 100 S7        29.89S
INDIANAPOLIS   MOCLDY    54  53  97 S6        29.89R FOG
-EAGLE CREEK   FOG       52  50  93 CALM      29.88S VSB 1/2
KOKOMO +       FOG       48  48 100 S3        29.89S VSB 1/4
MARION +       FOG       49  49 100 S3        29.89S VSB 1/4
MT COMFORT *+  CLOUDY    54  54 100 S6        29.89S
SHELBYVILLE    CLOUDY    57  53  86 S8        29.89S
ZIONSVILLE +   FOG       50  50  99 S3        29.89S VSB 1/4

$$

INZ033-034-041-042-049-050-058-059-221000-
EAST CENTRAL INDIANA

CITY           SKY/WX    TMP DP  RH WIND       PRES   REMARKS
MUNCIE         CLOUDY    56  53  90 S7        29.88F

$$

INZ060-061-067>069-081>083-085>088-221000-
SOUTHWEST INDIANA

CITY           SKY/WX    TMP DP  RH WIND       PRES   REMARKS
EVANSVILLE     CLOUDY    58  54  86 CALM      29.90R
HUNTINGBURG *+ MOCLDY    55  54  94 S3        29.90S
WASHINGTON +   MOCLDY    53  51  94 CALM      29.88F

$$

INZ062-063-066-070>080-084-089>092-221000-
SOUTH CENTRAL AND SOUTHEAST INDIANA

CITY           SKY/WX    TMP DP  RH WIND       PRES   REMARKS
BEDFORD +      CLOUDY   N/A N/A N/A S3        29.89F
BLOOMINGTON    CLOUDY    55  52  89 S5        29.89S FOG
MADISON *+     CLOUDY    55  54  94 S5        29.93S
NORTH VERNON + CLOUDY   N/A N/A N/A S5        29.91F
SEYMOUR +      CLOUDY    55  55 100 CALM      29.90S FOG

$$





USA.gov is the U.S. government's official web portal to all federal, state and local government web resources and services.